Location: Unspecified
(0.0000°N, 0.0000°E)
Time: 18:15:21
(UTC+00:00)

STARLINK 1040 - Pass Details

Date: 18 January 2020
Orbit: 337 x 343 km, 53.0° (Epoch: 23 January)

Event Time Altitude Azimuth Distance (km) Brightness Sun altitude
Exits shadow 05:11:23 - 222° (SW) 1,647 5.9 -13.7°
Reaches altitude 10° 05:12:17 10° 225° (SW) 1,276 5.3 -13.5°
Maximum altitude 05:15:04 54° 304° (WNW) 412 2.6 -12.9°
Drops below altitude 10° 05:17:50 10° 23° (NNE) 1,266 5.5 -12.2°
Sets 05:19:50 0° 28° (NNE) 2,099 6.7 -11.8°
